sat.trackr.live / text

‹ back to catalog

STARLINK-37685

NORAD 69373 · 2026-123W

PAYLOAD ACTIVE UNKNOWN

§ Identity

Operator
Country
US
Launch date
2026-06-04
Launch site
AFETR
Launch vehicle
Mass (kg)
RCS (m²)

Purposes: comms

External: N2YO · Heavens-Above · Gunter

§ Orbital elements

Epoch: 2026-09-20T02:33:08.087040Z

Period
93.85 min
Inclination
53.1588°
Eccentricity
0.0001564
Mean motion
15.34438522 rev/d
Perigee alt
461.5 km
Apogee alt
463.7 km
Semi-major
6,840.7 km
B*
7.7417e-4
RAAN
143.2269°
Arg perigee
112.8726°
Mean anomaly
247.2441°
Rev number
1,681

§ Raw data

STARLINK-376851 69373U 26123W   26263.10634360  .00025903  00000+0  77417-3 0  99912 69373  53.1588 143.2269 0001564 112.8726 247.2441 15.34438522 16817

JSON: /api/v1/satellites/69373 · /tle

For live sub-satellite position, see the globe view (requires WebGL).

§ Visibility from observer

Set your observer location to see the next 7 days of passes ≥ 10°. The values pass through the URL so the page stays shareable.

No JS? Fill the form by hand. The geolocation button needs JavaScript.